Year,Month,Day,Hour,Minute,Value (Times are PST for temperature in C)
2008,09,01,00,00,12.80
2008,09,01,00,01,12.80
2008,09,01,00,02,12.80
2008,09,01,00,03,12.80
2008,09,01,00,04,12.80
2008,09,01,00,05,12.80
2008,09,01,00,06,12.80
2008,09,01,00,07,12.80
2008,09,01,00,08,12.80
2008,09,01,00,09,12.80
2008,09,01,00,10,12.80
2008,09,01,00,11,12.80
2008,09,01,00,12,12.80
2008,09,01,00,13,12.80
2008,09,01,00,14,12.80
2008,09,01,00,15,12.80
2008,09,01,00,16,12.80
2008,09,01,00,17,12.70
2008,09,01,00,18,12.70
2008,09,01,00,19,12.70
2008,09,01,00,20,12.70
2008,09,01,00,21,12.70
2008,09,01,00,22,12.70
2008,09,01,00,23,12.70
2008,09,01,00,24,12.70
2008,09,01,00,25,12.70
2008,09,01,00,26,12.70
2008,09,01,00,27,12.70
2008,09,01,00,28,12.70
2008,09,01,00,29,12.70
2008,09,01,00,30,12.70
2008,09,01,00,31,12.70
2008,09,01,00,32,12.70
2008,09,01,00,33,12.70
2008,09,01,00,34,12.70
2008,09,01,00,35,12.70
2008,09,01,00,36,12.70
2008,09,01,00,37,12.70
2008,09,01,00,38,12.70
2008,09,01,00,39,12.70
2008,09,01,00,40,12.70
2008,09,01,00,41,12.70
2008,09,01,00,42,12.70
2008,09,01,00,43,12.70
2008,09,01,00,44,12.70
2008,09,01,00,45,12.70
2008,09,01,00,46,12.70
2008,09,01,00,47,12.70
2008,09,01,00,48,12.70
2008,09,01,00,49,12.60
2008,09,01,00,50,12.60
2008,09,01,00,51,12.60
2008,09,01,00,52,12.60
2008,09,01,00,53,12.60
2008,09,01,00,54,12.60
2008,09,01,00,55,12.60
2008,09,01,00,56,12.60
2008,09,01,00,57,12.60
2008,09,01,00,58,12.60
2008,09,01,00,59,12.60
2008,09,01,01,00,12.60
2008,09,01,01,01,12.60
2008,09,01,01,02,12.60
2008,09,01,01,03,12.60
2008,09,01,01,04,12.60
2008,09,01,01,05,12.60
2008,09,01,01,06,12.50
2008,09,01,01,07,12.50
2008,09,01,01,08,12.50
2008,09,01,01,09,12.50
2008,09,01,01,10,12.50
2008,09,01,01,11,12.40
2008,09,01,01,12,12.40
2008,09,01,01,13,12.40
2008,09,01,01,14,12.40
2008,09,01,01,15,12.40
2008,09,01,01,16,12.40
2008,09,01,01,17,12.40
2008,09,01,01,18,12.40
2008,09,01,01,19,12.30
2008,09,01,01,20,12.30
2008,09,01,01,21,12.30
2008,09,01,01,22,12.30
2008,09,01,01,23,12.30
2008,09,01,01,24,12.30
2008,09,01,01,25,12.30
2008,09,01,01,26,12.30
2008,09,01,01,27,12.30
2008,09,01,01,28,12.30
2008,09,01,01,29,12.30
2008,09,01,01,30,12.30
2008,09,01,01,31,12.30
2008,09,01,01,32,12.30
2008,09,01,01,33,12.30
2008,09,01,01,34,12.30
2008,09,01,01,35,12.30
2008,09,01,01,36,12.30
2008,09,01,01,37,12.30
2008,09,01,01,38,12.30
2008,09,01,01,39,12.30
2008,09,01,01,40,12.30
2008,09,01,01,41,12.30
2008,09,01,01,42,12.30
2008,09,01,01,43,12.30
2008,09,01,01,44,12.30
2008,09,01,01,45,12.30
2008,09,01,01,46,12.30
2008,09,01,01,47,12.30
2008,09,01,01,48,12.20
2008,09,01,01,49,12.20
2008,09,01,01,50,12.20
2008,09,01,01,51,12.20
2008,09,01,01,52,12.10
2008,09,01,01,53,12.10
2008,09,01,01,54,12.10
2008,09,01,01,55,12.10
2008,09,01,01,56,12.10
2008,09,01,01,57,12.10
2008,09,01,01,58,12.10
2008,09,01,01,59,12.10
2008,09,01,02,00,12.10
2008,09,01,02,01,12.10
2008,09,01,02,02,12.10
2008,09,01,02,03,12.10
2008,09,01,02,04,12.10
2008,09,01,02,05,12.00
2008,09,01,02,06,12.00
2008,09,01,02,07,12.00
2008,09,01,02,08,12.00
2008,09,01,02,09,11.90
2008,09,01,02,10,11.90
2008,09,01,02,11,11.80
2008,09,01,02,12,11.80
2008,09,01,02,13,11.80
2008,09,01,02,14,11.80
2008,09,01,02,15,11.80
2008,09,01,02,16,11.70
2008,09,01,02,17,11.70
2008,09,01,02,18,11.70
2008,09,01,02,19,11.60
2008,09,01,02,20,11.60
2008,09,01,02,21,11.60
2008,09,01,02,22,11.60
2008,09,01,02,23,11.60
2008,09,01,02,24,11.50
2008,09,01,02,25,11.40
2008,09,01,02,26,11.40
2008,09,01,02,27,11.40
2008,09,01,02,28,11.40
2008,09,01,02,29,11.30
2008,09,01,02,30,11.30
2008,09,01,02,31,11.20
2008,09,01,02,32,11.20
2008,09,01,02,33,11.20
2008,09,01,02,34,11.10
2008,09,01,02,35,11.10
2008,09,01,02,36,11.10
2008,09,01,02,37,11.10
2008,09,01,02,38,11.10
2008,09,01,02,39,11.10
2008,09,01,02,40,11.10
2008,09,01,02,41,11.00
2008,09,01,02,42,10.90
2008,09,01,02,43,10.90
2008,09,01,02,44,10.90
2008,09,01,02,45,10.90
2008,09,01,02,46,10.90
2008,09,01,02,47,10.90
2008,09,01,02,48,10.90
2008,09,01,02,49,10.90
2008,09,01,02,50,10.80
2008,09,01,02,51,10.80
2008,09,01,02,52,10.80
2008,09,01,02,53,10.80
2008,09,01,02,54,10.80
2008,09,01,02,55,10.70
2008,09,01,02,56,10.70
2008,09,01,02,57,10.70
2008,09,01,02,58,10.70
2008,09,01,02,59,10.70
2008,09,01,03,00,10.60
2008,09,01,03,01,10.60
2008,09,01,03,02,10.60
2008,09,01,03,03,10.60
2008,09,01,03,04,10.60
2008,09,01,03,05,10.60
2008,09,01,03,06,10.60
2008,09,01,03,07,10.60
2008,09,01,03,08,10.60
2008,09,01,03,09,10.60
2008,09,01,03,10,10.60
2008,09,01,03,11,10.60
2008,09,01,03,12,10.60
2008,09,01,03,13,10.60
2008,09,01,03,14,10.60
2008,09,01,03,15,10.50
2008,09,01,03,16,10.40
2008,09,01,03,17,10.40
2008,09,01,03,18,10.40
2008,09,01,03,19,10.40
2008,09,01,03,20,10.40
2008,09,01,03,21,10.40
2008,09,01,03,22,10.40
2008,09,01,03,23,10.50
2008,09,01,03,24,10.60
2008,09,01,03,25,10.60
2008,09,01,03,26,10.60
2008,09,01,03,27,10.60
2008,09,01,03,28,10.60
2008,09,01,03,29,10.60
2008,09,01,03,30,10.60
2008,09,01,03,31,10.70
2008,09,01,03,32,10.70
2008,09,01,03,33,10.70
2008,09,01,03,34,10.70
2008,09,01,03,35,10.80
2008,09,01,03,36,10.80
2008,09,01,03,37,10.80
2008,09,01,03,38,10.80
2008,09,01,03,39,10.80
2008,09,01,03,40,10.80
2008,09,01,03,41,10.80
2008,09,01,03,42,10.80
2008,09,01,03,43,10.80
2008,09,01,03,44,10.80
2008,09,01,03,45,10.80
2008,09,01,03,46,10.70
2008,09,01,03,47,10.70
2008,09,01,03,48,10.70
2008,09,01,03,49,10.70
2008,09,01,03,50,10.70
2008,09,01,03,51,10.60
2008,09,01,03,52,10.60
2008,09,01,03,53,10.60
2008,09,01,03,54,10.60
2008,09,01,03,55,10.60
2008,09,01,03,56,10.60
2008,09,01,03,57,10.60
2008,09,01,03,58,10.60
2008,09,01,03,59,10.60
2008,09,01,04,00,10.60
2008,09,01,04,01,10.60
2008,09,01,04,02,10.60
2008,09,01,04,03,10.60
2008,09,01,04,04,10.60
2008,09,01,04,05,10.60
2008,09,01,04,06,10.60
2008,09,01,04,07,10.60
2008,09,01,04,08,10.60
2008,09,01,04,09,10.60
2008,09,01,04,10,10.60
2008,09,01,04,11,10.60
2008,09,01,04,12,10.60
2008,09,01,04,13,10.50
2008,09,01,04,14,10.40
2008,09,01,04,15,10.40
2008,09,01,04,16,10.40
2008,09,01,04,17,10.40
2008,09,01,04,18,10.40
2008,09,01,04,19,10.30
2008,09,01,04,20,10.30
2008,09,01,04,21,10.30
2008,09,01,04,22,10.20
2008,09,01,04,23,10.20
2008,09,01,04,24,10.10
2008,09,01,04,25,10.10
2008,09,01,04,26,10.10
2008,09,01,04,27,10.10
2008,09,01,04,28,10.00
2008,09,01,04,29,9.90
2008,09,01,04,30,9.90
2008,09,01,04,31,9.90
2008,09,01,04,32,9.90
2008,09,01,04,33,9.90
2008,09,01,04,34,9.90
2008,09,01,04,35,9.80
2008,09,01,04,36,9.80
2008,09,01,04,37,9.80
2008,09,01,04,38,9.80
2008,09,01,04,39,9.80
2008,09,01,04,40,9.70
2008,09,01,04,41,9.70
2008,09,01,04,42,9.70
2008,09,01,04,43,9.70
2008,09,01,04,44,9.70
2008,09,01,04,45,9.70
2008,09,01,04,46,9.70
2008,09,01,04,47,9.70
2008,09,01,04,48,9.70
2008,09,01,04,49,9.70
2008,09,01,04,50,9.70
2008,09,01,04,51,9.70
2008,09,01,04,52,9.70
2008,09,01,04,53,9.70
2008,09,01,04,54,9.70
2008,09,01,04,55,9.70
2008,09,01,04,56,9.70
2008,09,01,04,57,9.70
2008,09,01,04,58,9.70
2008,09,01,04,59,9.60
2008,09,01,05,00,9.60
2008,09,01,05,01,9.60
2008,09,01,05,02,9.60
2008,09,01,05,03,9.60
2008,09,01,05,04,9.60
2008,09,01,05,05,9.60
2008,09,01,05,06,9.60
2008,09,01,05,07,9.60
2008,09,01,05,08,9.60
2008,09,01,05,09,9.60
2008,09,01,05,10,9.60
2008,09,01,05,11,9.60
2008,09,01,05,12,9.60
2008,09,01,05,13,9.60
2008,09,01,05,14,9.60
2008,09,01,05,15,9.60
2008,09,01,05,16,9.60
2008,09,01,05,17,9.70
2008,09,01,05,18,9.70
2008,09,01,05,19,9.70
2008,09,01,05,20,9.70
2008,09,01,05,21,9.70
2008,09,01,05,22,9.70
2008,09,01,05,23,9.70
2008,09,01,05,24,9.70
2008,09,01,05,25,9.60
2008,09,01,05,26,9.60
2008,09,01,05,27,9.60
2008,09,01,05,28,9.70
2008,09,01,05,29,9.70
2008,09,01,05,30,9.70
2008,09,01,05,31,9.70
2008,09,01,05,32,9.60
2008,09,01,05,33,9.60
2008,09,01,05,34,9.60
2008,09,01,05,35,9.60
2008,09,01,05,36,9.60
2008,09,01,05,37,9.60
2008,09,01,05,38,9.60
2008,09,01,05,39,9.60
2008,09,01,05,40,9.60
2008,09,01,05,41,9.60
2008,09,01,05,42,9.60
2008,09,01,05,43,9.60
2008,09,01,05,44,9.60
2008,09,01,05,45,9.60
2008,09,01,05,46,9.60
2008,09,01,05,47,9.60
2008,09,01,05,48,9.60
2008,09,01,05,49,9.60
2008,09,01,05,50,9.60
2008,09,01,05,51,9.60
2008,09,01,05,52,9.70
2008,09,01,05,53,9.70
2008,09,01,05,54,9.70
2008,09,01,05,55,9.70
2008,09,01,05,56,9.70
2008,09,01,05,57,9.70
2008,09,01,05,58,9.60
2008,09,01,05,59,9.60
2008,09,01,06,00,9.60
2008,09,01,06,01,9.60
2008,09,01,06,02,9.60
2008,09,01,06,03,9.60
2008,09,01,06,04,9.60
2008,09,01,06,05,9.60
2008,09,01,06,06,9.60
2008,09,01,06,07,9.60
2008,09,01,06,08,9.50
2008,09,01,06,09,9.50
2008,09,01,06,10,9.50
2008,09,01,06,11,9.50
2008,09,01,06,12,9.50
2008,09,01,06,13,9.50
2008,09,01,06,14,9.50
2008,09,01,06,15,9.40
2008,09,01,06,16,9.40
2008,09,01,06,17,9.40
2008,09,01,06,18,9.40
2008,09,01,06,19,9.40
2008,09,01,06,20,9.30
2008,09,01,06,21,9.30
2008,09,01,06,22,9.30
2008,09,01,06,23,9.30
2008,09,01,06,24,9.30
2008,09,01,06,25,9.30
2008,09,01,06,26,9.30
2008,09,01,06,27,9.30
2008,09,01,06,28,9.30
2008,09,01,06,29,9.30
2008,09,01,06,30,9.30
2008,09,01,06,31,9.30
2008,09,01,06,32,9.30
2008,09,01,06,33,9.30
2008,09,01,06,34,9.30
2008,09,01,06,35,9.30
2008,09,01,06,36,9.30
2008,09,01,06,37,9.30
2008,09,01,06,38,9.30
2008,09,01,06,39,9.30
2008,09,01,06,40,9.30
2008,09,01,06,41,9.30
2008,09,01,06,42,9.30
2008,09,01,06,43,9.30
2008,09,01,06,44,9.30
2008,09,01,06,45,9.30
2008,09,01,06,46,9.30
2008,09,01,06,47,9.30
2008,09,01,06,48,9.30
2008,09,01,06,49,9.30
2008,09,01,06,50,9.30
2008,09,01,06,51,9.30
2008,09,01,06,52,9.30
2008,09,01,06,53,9.30
2008,09,01,06,54,9.30
2008,09,01,06,55,9.30
2008,09,01,06,56,9.30
2008,09,01,06,57,9.30
2008,09,01,06,58,9.30
2008,09,01,06,59,9.30
2008,09,01,07,00,9.30
2008,09,01,07,01,9.30
2008,09,01,07,02,9.30
2008,09,01,07,03,9.30
2008,09,01,07,04,9.30
2008,09,01,07,05,9.30
2008,09,01,07,06,9.30
2008,09,01,07,07,9.30
2008,09,01,07,08,9.30
2008,09,01,07,09,9.30
2008,09,01,07,10,9.30
2008,09,01,07,11,9.30
2008,09,01,07,12,9.40
2008,09,01,07,13,9.40
2008,09,01,07,14,9.40
2008,09,01,07,15,9.50
2008,09,01,07,16,9.50
2008,09,01,07,17,9.50
2008,09,01,07,18,9.60
2008,09,01,07,19,9.60
2008,09,01,07,20,9.60
2008,09,01,07,21,9.60
2008,09,01,07,22,9.70
2008,09,01,07,23,9.70
2008,09,01,07,24,9.70
2008,09,01,07,25,9.80
2008,09,01,07,26,9.80
2008,09,01,07,27,9.80
2008,09,01,07,28,9.90
2008,09,01,07,29,9.90
2008,09,01,07,30,9.90
2008,09,01,07,31,9.90
2008,09,01,07,32,10.00
2008,09,01,07,33,10.10
2008,09,01,07,34,10.10
2008,09,01,07,35,10.10
2008,09,01,07,36,10.10
2008,09,01,07,37,10.10
2008,09,01,07,38,10.10
2008,09,01,07,39,10.10
2008,09,01,07,40,10.10
2008,09,01,07,41,10.10
2008,09,01,07,42,10.10
2008,09,01,07,43,10.10
2008,09,01,07,44,10.10
2008,09,01,07,45,10.10
2008,09,01,07,46,10.10
2008,09,01,07,47,10.10
2008,09,01,07,48,10.20
2008,09,01,07,49,10.20
2008,09,01,07,50,10.20
2008,09,01,07,51,10.30
2008,09,01,07,52,10.30
2008,09,01,07,53,10.30
2008,09,01,07,54,10.40
2008,09,01,07,55,10.40
2008,09,01,07,56,10.40
2008,09,01,07,57,10.40
2008,09,01,07,58,10.40
2008,09,01,07,59,10.50
2008,09,01,08,00,10.60
2008,09,01,08,01,10.60
2008,09,01,08,02,10.70
2008,09,01,08,03,10.70
2008,09,01,08,04,10.80
2008,09,01,08,05,10.80
2008,09,01,08,06,10.90
2008,09,01,08,07,10.90
2008,09,01,08,08,10.90
2008,09,01,08,09,10.90
2008,09,01,08,10,11.00
2008,09,01,08,11,11.10
2008,09,01,08,12,11.10
2008,09,01,08,13,11.10
2008,09,01,08,14,11.20
2008,09,01,08,15,11.20
2008,09,01,08,16,11.20
2008,09,01,08,17,11.30
2008,09,01,08,18,11.30
2008,09,01,08,19,11.40
2008,09,01,08,20,11.40
2008,09,01,08,21,11.40
2008,09,01,08,22,11.40
2008,09,01,08,23,11.40
2008,09,01,08,24,11.40
2008,09,01,08,25,11.40
2008,09,01,08,26,11.50
2008,09,01,08,27,11.60
2008,09,01,08,28,11.60
2008,09,01,08,29,11.60
2008,09,01,08,30,11.60
2008,09,01,08,31,11.70
2008,09,01,08,32,11.80
2008,09,01,08,33,11.80
2008,09,01,08,34,11.80
2008,09,01,08,35,11.90
2008,09,01,08,36,11.90
2008,09,01,08,37,12.00
2008,09,01,08,38,12.10
2008,09,01,08,39,12.20
2008,09,01,08,40,12.20
2008,09,01,08,41,12.20
2008,09,01,08,42,12.20
2008,09,01,08,43,12.30
2008,09,01,08,44,12.30
2008,09,01,08,45,12.40
2008,09,01,08,46,12.40
2008,09,01,08,47,12.50
2008,09,01,08,48,12.50
2008,09,01,08,49,12.50
2008,09,01,08,50,12.60
2008,09,01,08,51,12.60
2008,09,01,08,52,12.70
2008,09,01,08,53,12.70
2008,09,01,08,54,12.80
2008,09,01,08,55,12.80
2008,09,01,08,56,12.80
2008,09,01,08,57,12.70
2008,09,01,08,58,12.70
2008,09,01,08,59,12.60
2008,09,01,09,00,12.60
2008,09,01,09,01,12.60
2008,09,01,09,02,12.60
2008,09,01,09,03,12.60
2008,09,01,09,04,12.60
2008,09,01,09,05,12.60
2008,09,01,09,06,12.70
2008,09,01,09,07,12.80
2008,09,01,09,08,12.90
2008,09,01,09,09,13.00
2008,09,01,09,10,13.00
2008,09,01,09,11,13.10
2008,09,01,09,12,13.10
2008,09,01,09,13,13.20
2008,09,01,09,14,13.20
2008,09,01,09,15,13.30
2008,09,01,09,16,13.30
2008,09,01,09,17,13.30
2008,09,01,09,18,13.30
2008,09,01,09,19,13.30
2008,09,01,09,20,13.40
2008,09,01,09,21,13.40
2008,09,01,09,22,13.40
2008,09,01,09,23,13.40
2008,09,01,09,24,13.30
2008,09,01,09,25,13.40
2008,09,01,09,26,13.40
2008,09,01,09,27,13.40
2008,09,01,09,28,13.30
2008,09,01,09,29,13.40
2008,09,01,09,30,13.40
2008,09,01,09,31,13.50
2008,09,01,09,32,13.50
2008,09,01,09,33,13.50
2008,09,01,09,34,13.60
2008,09,01,09,35,13.60
2008,09,01,09,36,13.70
2008,09,01,09,37,13.60
2008,09,01,09,38,13.60
2008,09,01,09,39,13.60
2008,09,01,09,40,13.60
2008,09,01,09,41,13.60
2008,09,01,09,42,13.60
2008,09,01,09,43,13.60
2008,09,01,09,44,13.60
2008,09,01,09,45,13.60
2008,09,01,09,46,13.40
2008,09,01,09,47,13.50
2008,09,01,09,48,13.50
2008,09,01,09,49,13.50
2008,09,01,09,50,13.40
2008,09,01,09,51,13.40
2008,09,01,09,52,13.40
2008,09,01,09,53,13.40
2008,09,01,09,54,13.30
2008,09,01,09,55,13.40
2008,09,01,09,56,13.40
2008,09,01,09,57,13.40
2008,09,01,09,58,13.40
2008,09,01,09,59,13.40
2008,09,01,10,00,13.40
2008,09,01,10,01,13.40
2008,09,01,10,02,13.40
2008,09,01,10,03,13.50
2008,09,01,10,04,13.50
2008,09,01,10,05,13.50
2008,09,01,10,06,13.60
2008,09,01,10,07,13.70
2008,09,01,10,08,13.70
2008,09,01,10,09,13.80
2008,09,01,10,10,13.90
2008,09,01,10,11,13.90
2008,09,01,10,12,14.00
2008,09,01,10,13,14.10
2008,09,01,10,14,14.20
2008,09,01,10,15,14.20
2008,09,01,10,16,14.20
2008,09,01,10,17,14.20
2008,09,01,10,18,14.20
2008,09,01,10,19,14.20
2008,09,01,10,20,14.10
2008,09,01,10,21,14.00
2008,09,01,10,22,14.00
2008,09,01,10,23,14.00
2008,09,01,10,24,14.10
2008,09,01,10,25,14.20
2008,09,01,10,26,14.20
2008,09,01,10,27,14.30
2008,09,01,10,28,14.40
2008,09,01,10,29,14.50
2008,09,01,10,30,14.50
2008,09,01,10,31,14.60
2008,09,01,10,32,14.60
2008,09,01,10,33,14.70
2008,09,01,10,34,14.70
2008,09,01,10,35,14.80
2008,09,01,10,36,14.80
2008,09,01,10,37,14.80
2008,09,01,10,38,14.80
2008,09,01,10,39,14.90
2008,09,01,10,40,14.80
2008,09,01,10,41,14.60
2008,09,01,10,42,14.30
2008,09,01,10,43,14.10
2008,09,01,10,44,14.10
2008,09,01,10,45,14.00
2008,09,01,10,46,14.00
2008,09,01,10,47,14.00
2008,09,01,10,48,13.90
2008,09,01,10,49,13.90
2008,09,01,10,50,13.80
2008,09,01,10,51,13.90
2008,09,01,10,52,13.90
2008,09,01,10,53,13.80
2008,09,01,10,54,13.70
2008,09,01,10,55,13.70
2008,09,01,10,56,13.80
2008,09,01,10,57,13.80
2008,09,01,10,58,13.90
2008,09,01,10,59,14.00
2008,09,01,11,00,14.10
2008,09,01,11,01,14.10
2008,09,01,11,02,14.20
2008,09,01,11,03,14.20
2008,09,01,11,04,14.20
2008,09,01,11,05,14.20
2008,09,01,11,06,14.10
2008,09,01,11,07,13.90
2008,09,01,11,08,13.80
2008,09,01,11,09,13.70
2008,09,01,11,10,13.60
2008,09,01,11,11,13.60
2008,09,01,11,12,13.60
2008,09,01,11,13,13.60
2008,09,01,11,14,13.70
2008,09,01,11,15,13.70
2008,09,01,11,16,13.80
2008,09,01,11,17,13.80
2008,09,01,11,18,13.70
2008,09,01,11,19,13.70
2008,09,01,11,20,13.70
2008,09,01,11,21,13.80
2008,09,01,11,22,13.80
2008,09,01,11,23,13.90
2008,09,01,11,24,14.00
2008,09,01,11,25,14.10
2008,09,01,11,26,14.40
2008,09,01,11,27,14.50
2008,09,01,11,28,14.50
2008,09,01,11,29,14.30
2008,09,01,11,30,14.30
2008,09,01,11,31,14.20
2008,09,01,11,32,14.10
2008,09,01,11,33,14.00
2008,09,01,11,34,14.00
2008,09,01,11,35,14.00
2008,09,01,11,36,14.10
2008,09,01,11,37,14.20
2008,09,01,11,38,14.20
2008,09,01,11,39,14.10
2008,09,01,11,40,13.90
2008,09,01,11,41,13.90
2008,09,01,11,42,13.80
2008,09,01,11,43,13.70
2008,09,01,11,44,13.70
2008,09,01,11,45,13.70
2008,09,01,11,46,13.70
2008,09,01,11,47,13.80
2008,09,01,11,48,13.70
2008,09,01,11,49,13.70
2008,09,01,11,50,13.70
2008,09,01,11,51,13.70
2008,09,01,11,52,13.70
2008,09,01,11,53,13.80
2008,09,01,11,54,13.90
2008,09,01,11,55,14.00
2008,09,01,11,56,14.00
2008,09,01,11,57,14.00
2008,09,01,11,58,14.00
2008,09,01,11,59,13.90
2008,09,01,12,00,13.80
2008,09,01,12,01,13.70
2008,09,01,12,02,13.70
2008,09,01,12,03,13.60
2008,09,01,12,04,13.60
2008,09,01,12,05,13.60
2008,09,01,12,06,13.50
2008,09,01,12,07,13.40
2008,09,01,12,08,13.50
2008,09,01,12,09,13.60
2008,09,01,12,10,13.70
2008,09,01,12,11,13.90
2008,09,01,12,12,14.00
2008,09,01,12,13,14.10
2008,09,01,12,14,14.20
2008,09,01,12,15,14.40
2008,09,01,12,16,14.50
2008,09,01,12,17,14.70
2008,09,01,12,18,14.80
2008,09,01,12,19,15.00
2008,09,01,12,20,14.90
2008,09,01,12,21,15.00
2008,09,01,12,22,15.00
2008,09,01,12,23,15.00
2008,09,01,12,24,14.90
2008,09,01,12,25,14.70
2008,09,01,12,26,14.60
2008,09,01,12,27,14.40
2008,09,01,12,28,14.20
2008,09,01,12,29,14.10
2008,09,01,12,30,14.10
2008,09,01,12,31,14.00
2008,09,01,12,32,14.10
2008,09,01,12,33,14.20
2008,09,01,12,34,14.30
2008,09,01,12,35,14.40
2008,09,01,12,36,14.50
2008,09,01,12,37,14.50
2008,09,01,12,38,14.50
2008,09,01,12,39,14.50
2008,09,01,12,40,14.60
2008,09,01,12,41,14.60
2008,09,01,12,42,14.70
2008,09,01,12,43,14.70
2008,09,01,12,44,14.70
2008,09,01,12,45,14.70
2008,09,01,12,46,14.80
2008,09,01,12,47,14.90
2008,09,01,12,48,15.10
2008,09,01,12,49,15.20
2008,09,01,12,50,15.30
2008,09,01,12,51,15.40
2008,09,01,12,52,15.50
2008,09,01,12,53,15.40
2008,09,01,12,54,15.40
2008,09,01,12,55,15.30
2008,09,01,12,56,15.20
2008,09,01,12,57,15.10
2008,09,01,12,58,15.10
2008,09,01,12,59,15.00
2008,09,01,13,00,15.10
2008,09,01,13,01,15.10
2008,09,01,13,02,15.00
2008,09,01,13,03,15.00
2008,09,01,13,04,15.00
2008,09,01,13,05,14.90
2008,09,01,13,06,14.80
2008,09,01,13,07,14.80
2008,09,01,13,08,14.90
2008,09,01,13,09,15.00
2008,09,01,13,10,15.00
2008,09,01,13,11,14.80
2008,09,01,13,12,14.80
2008,09,01,13,13,14.60
2008,09,01,13,14,14.50
2008,09,01,13,15,14.40
2008,09,01,13,16,14.40
2008,09,01,13,17,14.30
2008,09,01,13,18,14.20
2008,09,01,13,19,14.20
2008,09,01,13,20,14.20
2008,09,01,13,21,14.20
2008,09,01,13,22,14.20
2008,09,01,13,23,14.30
2008,09,01,13,24,14.40
2008,09,01,13,25,14.50
2008,09,01,13,26,14.40
2008,09,01,13,27,14.50
2008,09,01,13,28,14.50
2008,09,01,13,29,14.50
2008,09,01,13,30,14.40
2008,09,01,13,31,14.30
2008,09,01,13,32,14.20
2008,09,01,13,33,14.20
2008,09,01,13,34,14.20
2008,09,01,13,35,14.30
2008,09,01,13,36,14.30
2008,09,01,13,37,14.30
2008,09,01,13,38,14.30
2008,09,01,13,39,14.30
2008,09,01,13,40,14.30
2008,09,01,13,41,14.40
2008,09,01,13,42,14.40
2008,09,01,13,43,14.40
2008,09,01,13,44,14.50
2008,09,01,13,45,14.50
2008,09,01,13,46,14.60
2008,09,01,13,47,14.60
2008,09,01,13,48,14.60
2008,09,01,13,49,14.60
2008,09,01,13,50,14.50
2008,09,01,13,51,14.30
2008,09,01,13,52,14.20
2008,09,01,13,53,14.20
2008,09,01,13,54,14.20
2008,09,01,13,55,14.20
2008,09,01,13,56,14.20
2008,09,01,13,57,14.20
2008,09,01,13,58,14.30
2008,09,01,13,59,14.40
2008,09,01,14,00,14.50
2008,09,01,14,01,14.60
2008,09,01,14,02,14.60
2008,09,01,14,03,14.70
2008,09,01,14,04,14.70
2008,09,01,14,05,14.70
2008,09,01,14,06,14.70
2008,09,01,14,07,14.70
2008,09,01,14,08,14.60
2008,09,01,14,09,14.60
2008,09,01,14,10,14.60
2008,09,01,14,11,14.60
2008,09,01,14,12,14.60
2008,09,01,14,13,14.70
2008,09,01,14,14,14.80
2008,09,01,14,15,14.90
2008,09,01,14,16,15.00
2008,09,01,14,17,15.00
2008,09,01,14,18,15.10
2008,09,01,14,19,15.20
2008,09,01,14,20,15.30
2008,09,01,14,21,15.30
2008,09,01,14,22,15.30
2008,09,01,14,23,15.50
2008,09,01,14,24,15.50
2008,09,01,14,25,15.50
2008,09,01,14,26,15.40
2008,09,01,14,27,15.40
2008,09,01,14,28,15.40
2008,09,01,14,29,15.30
2008,09,01,14,30,15.30
2008,09,01,14,31,15.30
2008,09,01,14,32,15.30
2008,09,01,14,33,15.20
2008,09,01,14,34,15.10
2008,09,01,14,35,15.10
2008,09,01,14,36,15.10
2008,09,01,14,37,15.00
2008,09,01,14,38,15.10
2008,09,01,14,39,15.10
2008,09,01,14,40,15.20
2008,09,01,14,41,15.30
2008,09,01,14,42,15.30
2008,09,01,14,43,15.30
2008,09,01,14,44,15.30
2008,09,01,14,45,15.40
2008,09,01,14,46,15.40
2008,09,01,14,47,15.40
2008,09,01,14,48,15.40
2008,09,01,14,49,15.30
2008,09,01,14,50,15.30
2008,09,01,14,51,15.40
2008,09,01,14,52,15.30
2008,09,01,14,53,15.30
2008,09,01,14,54,15.30
2008,09,01,14,55,15.30
2008,09,01,14,56,15.30
2008,09,01,14,57,15.30
2008,09,01,14,58,15.30
2008,09,01,14,59,15.40
2008,09,01,15,00,15.50
2008,09,01,15,01,15.50
2008,09,01,15,02,15.50
2008,09,01,15,03,15.50
2008,09,01,15,04,15.40
2008,09,01,15,05,15.30
2008,09,01,15,06,15.30
2008,09,01,15,07,15.30
2008,09,01,15,08,15.30
2008,09,01,15,09,15.30
2008,09,01,15,10,15.20
2008,09,01,15,11,15.20
2008,09,01,15,12,15.30
2008,09,01,15,13,15.20
2008,09,01,15,14,15.20
2008,09,01,15,15,15.20
2008,09,01,15,16,15.30
2008,09,01,15,17,15.30
2008,09,01,15,18,15.40
2008,09,01,15,19,15.40
2008,09,01,15,20,15.50
2008,09,01,15,21,15.50
2008,09,01,15,22,15.60
2008,09,01,15,23,15.70
2008,09,01,15,24,15.80
2008,09,01,15,25,15.80
2008,09,01,15,26,15.80
2008,09,01,15,27,15.90
2008,09,01,15,28,16.10
2008,09,01,15,29,16.10
2008,09,01,15,30,16.10
2008,09,01,15,31,16.10
2008,09,01,15,32,16.10
2008,09,01,15,33,16.10
2008,09,01,15,34,16.10
2008,09,01,15,35,16.10
2008,09,01,15,36,16.10
2008,09,01,15,37,16.10
2008,09,01,15,38,16.20
2008,09,01,15,39,16.20
2008,09,01,15,40,16.30
2008,09,01,15,41,16.40
2008,09,01,15,42,16.40
2008,09,01,15,43,16.50
2008,09,01,15,44,16.60
2008,09,01,15,45,16.60
2008,09,01,15,46,16.70
2008,09,01,15,47,16.70
2008,09,01,15,48,16.70
2008,09,01,15,49,16.70
2008,09,01,15,50,16.70
2008,09,01,15,51,16.70
2008,09,01,15,52,16.70
2008,09,01,15,53,16.70
2008,09,01,15,54,16.70
2008,09,01,15,55,16.70
2008,09,01,15,56,16.70
2008,09,01,15,57,16.70
2008,09,01,15,58,16.70
2008,09,01,15,59,16.70
2008,09,01,16,00,16.70
2008,09,01,16,01,16.70
2008,09,01,16,02,16.50
2008,09,01,16,03,16.40
2008,09,01,16,04,16.40
2008,09,01,16,05,16.30
2008,09,01,16,06,16.30
2008,09,01,16,07,16.30
2008,09,01,16,08,16.30
2008,09,01,16,09,16.40
2008,09,01,16,10,16.40
2008,09,01,16,11,16.40
2008,09,01,16,12,16.50
2008,09,01,16,13,16.60
2008,09,01,16,14,16.50
2008,09,01,16,15,16.40
2008,09,01,16,16,16.40
2008,09,01,16,17,16.40
2008,09,01,16,18,16.40
2008,09,01,16,19,16.30
2008,09,01,16,20,16.20
2008,09,01,16,21,16.10
2008,09,01,16,22,16.00
2008,09,01,16,23,15.90
2008,09,01,16,24,15.90
2008,09,01,16,25,15.80
2008,09,01,16,26,15.80
2008,09,01,16,27,15.80
2008,09,01,16,28,15.80
2008,09,01,16,29,15.70
2008,09,01,16,30,15.60
2008,09,01,16,31,15.50
2008,09,01,16,32,15.50
2008,09,01,16,33,15.40
2008,09,01,16,34,15.40
2008,09,01,16,35,15.30
2008,09,01,16,36,15.30
2008,09,01,16,37,15.30
2008,09,01,16,38,15.40
2008,09,01,16,39,15.40
2008,09,01,16,40,15.40
2008,09,01,16,41,15.30
2008,09,01,16,42,15.30
2008,09,01,16,43,15.30
2008,09,01,16,44,15.30
2008,09,01,16,45,15.20
2008,09,01,16,46,15.10
2008,09,01,16,47,15.00
2008,09,01,16,48,15.00
2008,09,01,16,49,14.90
2008,09,01,16,50,14.80
2008,09,01,16,51,14.80
2008,09,01,16,52,14.80
2008,09,01,16,53,14.90
2008,09,01,16,54,14.90
2008,09,01,16,55,15.00
2008,09,01,16,56,15.00
2008,09,01,16,57,15.00
2008,09,01,16,58,15.10
2008,09,01,16,59,15.10
2008,09,01,17,00,15.10
2008,09,01,17,01,15.20
2008,09,01,17,02,15.10
2008,09,01,17,03,15.10
2008,09,01,17,04,15.00
2008,09,01,17,05,15.00
2008,09,01,17,06,14.80
2008,09,01,17,07,14.80
2008,09,01,17,08,14.80
2008,09,01,17,09,14.80
2008,09,01,17,10,14.80
2008,09,01,17,11,14.80
2008,09,01,17,12,14.70
2008,09,01,17,13,14.70
2008,09,01,17,14,14.70
2008,09,01,17,15,14.60
2008,09,01,17,16,14.60
2008,09,01,17,17,14.60
2008,09,01,17,18,14.50
2008,09,01,17,19,14.50
2008,09,01,17,20,14.40
2008,09,01,17,21,14.40
2008,09,01,17,22,14.40
2008,09,01,17,23,14.40
2008,09,01,17,24,14.40
2008,09,01,17,25,14.40
2008,09,01,17,26,14.50
2008,09,01,17,27,14.50